FENGYUN 1C DEB

Satellite information

Favourite Embed

Satellite Type and Status

DEBRISIN ORBIT

Key statistics

Satellite FENGYUN 1C DEB at a glance.

Uptime

9554

Days in orbit

Revolutions

≈ 14.2

Per day

Orbit

SSO

Sun Synchronous Orbit

Inclination

98.8

Latest

Satellite identification and parameters

Extended collection of information and parameters for FENGYUN 1C DEB.

Object identification

Identified? True

Debris? True

Object name: FENGYUN 1C DEB

International designator: 1999-025EYC

Object number (NORAD): 41825

Object ID (CCSDS): 41825

Country: PEOPLES REPUBLIC OF CHINA (PRC)

Current information (Y/N): Y

RCS size: SMALL

Orbital parameters

Period: 101.141 minutes

Inclination: 98.7521 deg

SMA: 7190.814 km

Apoapsis: 851.36 km

Periapsis: 773.999 km

RAAN: 255.6651 deg

Eccentricy: 0.0053791

Argument of periapsis: 328.7569 deg

Mean anomaly: 31.0416 deg

Mean motion: 14.2375622 rev/day

Mean motion (dot): 0.00002116 rev/day2

B* drag term: 0.00093161 1/REarth

Two-line elements (TLE)

Creation date: July 5, 2025, 6:46 a.m.

Reference frame: TEME

Reference center: EARTH

Epoch: July 4, 2025, 10:18 p.m. UTC

TLE line 0: 0 FENGYUN 1C DEB

TLE line 1: 1 41825U 99025EYC 25185.92917145 .00002116 00000-0 93161-3 0 9997

TLE line 2: 2 41825 98.7521 255.6651 0053791 328.7569 31.0416 14.23756220450599

Live tracking on map

Real-time ground track for satellite FENGYUN 1C DEB.

In-orbit conjunctions

A list of the most updated potential collisions computed for object FENGYUN 1C DEB.

Target Orbit TCA Probability of collision Miss distance Type
IRS 1D SSO 2024-09-07 15:48:33 0.0001637089 442.0 (m) PAYLOAD

Associated space launch

Chinese polar orbiting meteorological satellite

FENGYUN 1C DEB was lifted into orbit during the mission ‘Long March 4B | Feng Yun 1C’, on board a Long March 4B space rocket.

The launch took place on May 10, 1999, 1:33 a.m. from Launch Complex 7.

For more information about the launch, click the button.

Launch to space Long March 4B | Feng Yun 1C
Long March 4B | Feng Yun 1C

Agency: N/A

Status: Launch Successful

Launch date: May 10, 1999, 1:33 a.m. UTC

Rocket: Long March 4B

Launch pad: Launch Complex 7

Location: Taiyuan Satellite Launch Center, People's Republic of China

...

Latest news about this satellite

There are no fresh news available about this satellite. Check back as we update our databases every day.


Newsletter sign-up

Weekly statistics, charts and insights to help you stay on top of the space industry.